Location: Koussan�
(15.2012°N, 12.5548°W)
Time: 17:52:58
(UTC+00:00)

BREEZE-M DEB (TANK) - Pass Details

Date: 20 October 2020
Orbit: 292 x 17183 km, 49.4° (Epoch: 30 November)

Event Time Altitude Azimuth Distance (km) Brightness Sun altitude
Rises 18:47:03 0° 224° (SW) 6,708 9.3 -5.7°
Reaches altitude 10° 18:53:27 10° 228° (SW) 3,891 8.1 -7.2°
Maximum altitude 19:00:41 51° 304° (WNW) 771 3.9 -8.9°
Drops below altitude 10° 19:03:19 10° 23° (NNE) 1,432 4.6 -9.6°
Enters shadow 19:04:06 - 28° (NNE) 1,808 5.1 -9.7°
